User: anonymous   Login
Location: Unspecified
(0.0000°N, 0.0000°E)
Time: 14:00:11
(UTC+00:00)
Language:

LES 1 - Orbit

View from above orbital plane
View from above orbital plane
View from above satellite
View from above satellite

Ground track
Ground track

The orbit data is extracted from the following two-line orbital elements,

1  1002U 65008C   18050.38591359 +.00000003 +00000-0 -72556-3 0  9991
2  1002 032.1469 045.8928 0015407 085.9998 274.2260 09.88352639915439
Epoch (UTC): 19 February 2018 09:15:42
Eccentricity: 0.0015407
inclination: 32.1469°
perigee height: 2779 km
apogee height: 2808 km
right ascension of ascending node: 45.8928°
argument of perigee: 85.9998°
revolutions per day: 9.88352639
mean anomaly at epoch: 274.2260°
orbit number at epoch: 91543

The dashed part of the orbit path shows where the satellite is in the earth's shadow,  

DLR